Sarasota, FL

8:31 AM EDT on September 18, 2019 (GMT -0400)
Sarasota-bradenton

Weather History for KSRQ - July, 2019

Change the Weather History Date:

Saturday, July 20, 2019

  Actual Average Record
Temperature  
Mean Temperature 82 °F 82 °F  
Max Temperature 92 °F 90 °F 97 °F (2010)
Min Temperature 71 °F 75 °F 67 °F (1948)
Degree Days  
Heating Degree Days 0 0  
Month to date heating degree days 0 0  
Since 1 June heating degree days 0 0  
Since 1 July heating degree days 0 0  
Cooling Degree Days 17 18  
Month to date cooling degree days 367 344  
Year to date cooling degree days 2083 1567  
Since 1 June cooling degree days 926 816  
Growing Degree Days 31 (Base 50)    
Moisture  
Dew Point 72 °F    
Average Humidity 81    
Maximum Humidity 93    
Minimum Humidity 59    
Precipitation  
Precipitation 0.83 in 0.25 in 2.79 in (1978)
Month to date precipitation 9.80 5.15  
Year to date precipitation 24.41 26.36  
Sea Level Pressure  
Sea Level Pressure 30.04 in    
Wind  
Wind Speed 6 mph (East)    
Max Wind Speed 15 mph    
Max Gust Speed 22 mph    
Visibility 9 miles    
Events Rain , Thunderstorm    
T = Trace of Precipitation, MM = Missing Value Source: NWS Daily Summary

Daily Weather History Graph

Daily Weather History Graph

Search for Another Location

Airport or City:

Astronomy

Jul. 20, 2019 Rise Set
Actual Time 6:47 AM EDT 8:25 PM EDT
Civil Twilight 6:21 AM EDT 8:51 PM EDT
Nautical Twilight 5:50 AM EDT 9:22 PM EDT
Astronomical Twilight 5:18 AM EDT 9:54 PM EDT
Moon 11:08 PM EDT (7/20) 9:57 AM EDT (7/20)
Length of Visible Light 14h 29m
Length of Day
13h 38m
Waning Gibbous, 87% of the Moon is Illuminated
Jul 20
Waning Gibbous
Jul 24
Last Quarter
Jul 31
New
Aug 7
First Quarter
Aug 15
Full

Hourly Weather History & Observations

Time (EDT) Temp. Heat Index Dew Point Humidity Pressure Visibility Wind Dir Wind Speed Gust Speed Precip Events Conditions
12:53 AM 75.0 °F - 72.0 °F 90% 30.06 in 10.0 mi East 3.5 mph - N/A   Clear
1:53 AM 75.0 °F - 72.0 °F 90% 30.05 in 10.0 mi East 3.5 mph - N/A   Clear
2:53 AM 75.0 °F - 71.1 °F 87% 30.02 in 10.0 mi ENE 4.6 mph - N/A   Clear
3:53 AM 75.0 °F - 71.1 °F 87% 30.02 in 10.0 mi NE 5.8 mph - N/A   Clear
4:53 AM 75.0 °F - 71.1 °F 87% 30.02 in 10.0 mi ENE 5.8 mph - N/A   Clear
5:53 AM 75.0 °F - 72.0 °F 90% 30.03 in 10.0 mi East 5.8 mph - N/A   Clear
6:53 AM 75.0 °F - 72.0 °F 90% 30.04 in 10.0 mi East 5.8 mph - N/A   Clear
7:53 AM 77.0 °F - 73.9 °F 90% 30.05 in 10.0 mi East 5.8 mph - N/A   Clear
8:53 AM 81.0 °F 86.7 °F 75.0 °F 82% 30.07 in 10.0 mi East 9.2 mph - N/A   Clear
9:53 AM 84.0 °F 91.9 °F 75.0 °F 74% 30.07 in 10.0 mi SE 8.1 mph - N/A   Clear
10:53 AM 87.1 °F 95.4 °F 73.9 °F 65% 30.08 in 10.0 mi SE 8.1 mph - N/A   Clear
11:53 AM 89.1 °F 98.0 °F 73.9 °F 61% 30.08 in 10.0 mi ESE 4.6 mph - N/A   Partly Cloudy
12:53 PM 90.0 °F 99.0 °F 73.9 °F 59% 30.06 in 10.0 mi Calm Calm - N/A   Scattered Clouds
1:53 PM 90.0 °F 101.3 °F 75.9 °F 63% 30.04 in 10.0 mi West 9.2 mph - N/A   Partly Cloudy
2:53 PM 90.0 °F 100.2 °F 75.0 °F 61% 30.03 in 10.0 mi SW 9.2 mph - N/A   Scattered Clouds
3:53 PM 91.0 °F 101.6 °F 75.0 °F 59% 30.01 in 10.0 mi West 11.5 mph - N/A   Clear
4:23 PM 90.0 °F 100.2 °F 75.0 °F 61% 30.01 in 10.0 mi West 12.7 mph - N/A Thunderstorm Scattered Clouds
4:30 PM 90.0 °F 100.2 °F 75.0 °F 61% 30.00 in 10.0 mi West 13.8 mph - N/A Thunderstorm Thunderstorm
4:53 PM 88.0 °F 96.5 °F 73.9 °F 63% 30.03 in 10.0 mi West 6.9 mph - N/A Thunderstorm Thunderstorm
5:25 PM 72.0 °F - 68.0 °F 87% 30.09 in 1.8 mi West 9.2 mph 18.4 mph 0.15 in Rain , Thunderstorm Heavy Thunderstorms and Rain
5:36 PM 72.0 °F - 70.0 °F 93% 30.09 in 0.8 mi West 9.2 mph 18.4 mph 0.56 in Rain , Thunderstorm Heavy Thunderstorms and Rain
5:45 PM 72.0 °F - 69.1 °F 91% 30.07 in 1.0 mi West 9.2 mph 18.4 mph 0.73 in Rain , Thunderstorm Heavy Thunderstorms and Rain
5:53 PM 71.1 °F - 66.9 °F 87% 30.06 in 2.5 mi West 9.2 mph 18.4 mph 0.77 in Rain , Thunderstorm Thunderstorms and Rain
6:00 PM 71.1 °F - 68.0 °F 90% 30.06 in 5.0 mi NE 5.8 mph - 0.01 in Rain , Thunderstorm Thunderstorms and Rain
6:53 PM 73.0 °F - 68.0 °F 84% 30.00 in 10.0 mi South 5.8 mph - 0.02 in Thunderstorm Thunderstorm
7:24 PM 73.0 °F - 71.1 °F 93% 30.01 in 10.0 mi SE 11.5 mph - 0.01 in Rain Light Rain
7:53 PM 73.9 °F - 72.0 °F 93% 30.02 in 10.0 mi ENE 4.6 mph - 0.04 in Rain Light Rain
8:46 PM 73.9 °F - 71.1 °F 91% 30.04 in 10.0 mi ENE 3.5 mph - 0.00 in   Partly Cloudy
8:53 PM 73.9 °F - 71.1 °F 91% 30.04 in 10.0 mi East 4.6 mph - 0.00 in   Clear
9:53 PM 73.9 °F - 71.1 °F 91% 30.03 in 10.0 mi North 5.8 mph - N/A   Clear
10:53 PM 73.9 °F - 71.1 °F 91% 30.04 in 10.0 mi ENE 5.8 mph - N/A   Clear
11:53 PM 73.9 °F - 72.0 °F 93% 30.04 in 10.0 mi Calm Calm - N/A   Clear